RH
22 26 52 58 85 87 91 95 94 97 99 99 96 92 72 65 60 72 67 62 61 71 77 94 96 92 95 97 95 95 96 96 96 89 94 95 96 91 84 71 57 58 65 64
14 17 23 30 27 28 60 92 99 98 100 98 99 92 94 80 70 67 79 62 61 52 57 74 79 92 96 95 93 95 96 95 94 95 96 96 96 92 68 57 62 77 74 69
12 14 14 18 16 14 18 54 82 94 98 99 96 97 87 83 64 65 63 68 66 64 72 84 81 82 85 76 89 96 96 96 95 95 97 95 96 96 91 75 82 80 74 69
14 8 13 14 15 16 14 16 44 58 90 94 100 100 95 83 78 57 51 59 73 73 63 62 75 73 70 65 65 68 79 80 71 99 95 95 96 95 92 95 96 97 94 91
22 17 15 18 21 23 22 25 20 15 35 70 87 94 97 99 84 84 61 65 63 70 75 69 68 62 61 59 53 58 61 54 55 72 86 94 96 97 93 96 97 85 72 76
14 22 22 20 22 22 22 21 25 26 26 26 43 63 94 94 98 97 98 96 90 89 90 89 82 81 77 74 80 81 60 59 53 68 85 92 86 96 82 81 82 84 79 63
8 10 11 11 15 22 26 27 32 55 60 32 38 37 52 85 94 95 91 94 90 94 94 96 99 92 84 84 89 90 81 67 56 55 67 67 64 84 87 89 84 82 77 59
8 9 10 16 15 18 25 33 36 38 51 50 53 31 33 44 82 83 83 87 97 99 84 91 100 94 86 100 94 80 67 61 61 52 50 46 52 62 72 78 66 61 53 52
7 10 12 13 32 32 45 82 87 68 58 50 47 35 32 45 42 45 55 87 85 82 71 71 88 90 88 88 86 84 76 58 54 52 47 42 41 42 51 48 55 51 41 45
6 10 13 16 37 73 74 87 100 100 100 97 54 30 29 59 63 59 54 91 92 81 90 84 79 80 81 100 92 79 64 53 51 47 47 50 46 29 21 30 39 50 47 38
4 6 15 27 82 94 94 100 100 100 100 83 71 60 55 64 100 94 75 68 91 84 81 86 95 97 96 79 65 56 48 41 39 44 42 39 36 34 30 24 16 14 18 29
4 4 14 37 61 97 100 100 100 100 97 92 72 75 65 71 80 99 100 98 84 83 80 78 76 70 70 68 57 46 38 32 28 30 32 29 27 29 29 27 30 27 21 20
4 4 8 22 86 80 100 100 99 100 93 79 72 54 68 67 78 68 73 90 90 83 77 78 71 57 50 45 47 44 34 29 28 26 24 26 25 24 27 27 27 27 29 34
4 5 6 12 66 93 88 100 100 100 100 95 80 69 66 74 76 94 97 89 76 79 84 84 74 65 56 46 40 35 30 25 24 24 27 29 28 26 25 25 28 30 31 31
4 4 5 9 22 89 94 77 83 100 85 97 74 78 91 86 73 79 95 98 91 82 68 74 82 79 60 50 50 43 35 30 26 27 29 32 33 26 19 20 21 23 24 24
4 4 5 8 12 58 68 87 100 99 90 75 70 70 82 100 90 81 100 100 93 81 73 76 80 73 63 50 65 59 50 41 39 37 35 33 28 26 25 24 24 26 27 28
5 5 5 6 12 28 80 98 98 100 100 90 78 89 100 90 73 76 86 88 87 85 86 82 77 70 53 43 41 43 36 33 33 29 27 31 36 33 32 34 40 41 40 37
6 5 5 6 12 19 56 94 97 90 99 98 75 96 88 90 80 76 73 64 80 88 70 68 76 70 63 59 48 39 31 26 23 19 20 40 40 34 28 26 27 29 31 36
6 6 5 6 12 28 75 87 97 93 71 67 78 100 88 98 100 94 96 82 78 72 65 85 89 85 85 82 64 46 38 32 27 23 20 21 23 22 20 21 22 24 26 27
7 6 6 6 10 19 47 99 96 92 84 65 68 80 68 70 62 92 89 85 83 81 94 91 86 97 92 91 87 78 66 58 47 45 40 37 35 36 40 46 48 45 43 45
7 6 6 6 9 18 22 58 98 100 89 100 100 100 100 91 74 68 79 94 100 100 91 69 60 74 87 98 97 93 85 91 73 62 60 63 60 66 66 59 59 67 71 62
8 7 7 6 7 13 26 40 68 95 100 100 96 95 100 100 100 100 100 96 99 100 92 66 69 74 79 89 98 95 91 87 82 74 75 70 66 58 49 53 60 51 50 46
8 8 7 7 6 11 20 45 60 59 76 98 99 98 100 100 100 100 100 100 95 95 100 90 75 69 71 71 87 98 92 85 70 77 84 83 79 75 70 60 55 54 54 58
10 8 8 7 5 7 11 17 28 47 66 63 56 78 87 96 96 98 100 100 100 100 100 96 81 69 66 68 67 68 70 68 70 68 66 64 61 61 62 73 83 84 82 83
11 9 8 7 5 6 6 9 18 29 37 45 57 54 59 81 80 85 80 76 91 100 100 99 84 73 81 91 88 88 83 75 67 62 58 58 58 62 65 63 68 80 88 92
12 11 8 8 7 6 6 5 7 16 26 30 38 50 66 81 90 81 69 69 66 74 83 96 97 92 92 91 90 81 69 64 62 61 62 61 62 64 68 70 74 79 79 76
Wind_Speed
20 19 30 25 36 32 32 25 45 36 55 50 51 54 59 58 57 56 53 50 50 43 38 39 39 43 42 40 39 29 26 32 33 33 36 35 33 24 25 22 20 17 20 23
7 21 26 28 30 34 37 31 26 26 48 38 59 62 49 53 56 58 54 53 48 49 43 39 39 39 37 34 30 33 29 29 35 31 42 33 32 26 22 22 21 22 23 26
15 11 12 25 32 36 38 37 33 27 41 56 41 59 49 51 59 60 57 56 51 49 48 44 41 41 37 37 36 35 32 31 30 29 28 27 24 27 28 26 25 29 30 30
18 17 18 19 19 22 30 37 40 37 30 39 51 36 44 55 53 63 62 59 52 51 52 51 44 43 42 43 43 42 39 36 36 35 35 38 36 33 33 32 35 35 35 34
25 27 27 24 21 21 20 24 38 49 51 51 37 40 35 47 53 54 59 61 56 53 51 49 50 49 50 49 47 50 48 42 41 39 41 39 40 34 33 36 36 35 36 37
25 38 38 39 40 37 34 32 28 37 40 53 50 43 45 41 29 36 43 59 57 55 54 50 53 55 53 48 45 45 45 45 46 45 45 44 42 39 40 39 40 42 41 40
17 24 33 39 45 41 41 40 35 29 32 45 48 52 45 41 34 30 36 39 47 49 50 47 45 42 44 53 53 51 51 51 52 49 47 46 45 45 44 45 45 44 42 42
19 21 27 31 38 45 43 38 38 35 34 33 34 52 50 43 44 41 34 37 44 42 40 49 51 47 40 43 43 38 38 43 46 49 50 50 49 49 48 47 47 47 47 47
30 21 22 28 32 35 36 34 32 33 34 36 37 35 40 35 40 43 43 36 39 42 43 42 46 52 48 48 48 48 44 41 40 45 48 49 47 49 51 51 50 50 50 50
34 27 22 23 31 30 34 34 34 30 27 23 29 35 31 27 30 36 41 44 40 34 35 44 47 45 50 51 55 52 49 44 42 42 45 49 52 51 51 52 52 53 52 53
38 36 23 19 16 26 33 36 35 32 32 32 27 21 25 29 26 34 44 51 47 41 35 34 42 46 47 46 44 42 39 38 40 41 44 46 47 47 48 48 51 53 55 55
41 41 29 17 19 22 27 27 30 38 33 27 31 32 25 23 34 34 33 36 49 50 47 41 38 39 40 44 45 44 44 45 45 45 45 44 46 47 48 48 50 52 54 55
43 38 35 17 14 25 29 30 29 29 29 33 31 26 26 26 25 30 35 37 37 38 41 40 40 41 43 46 48 49 49 48 48 49 50 49 48 50 52 54 55 56 59 60
44 36 35 21 12 19 28 29 32 32 32 29 27 26 27 29 24 23 29 32 37 39 40 40 42 41 42 45 46 47 46 47 47 47 47 49 48 49 51 52 54 56 56 55
43 42 36 29 16 19 20 23 30 29 39 28 29 30 25 28 26 25 27 32 36 39 42 44 45 45 42 43 45 47 47 46 46 47 49 49 49 49 49 49 49 51 51 53
41 44 42 28 21 20 17 25 23 23 28 28 35 28 33 32 31 28 29 31 31 36 41 44 45 46 45 44 42 43 45 45 45 46 48 49 50 49 49 49 48 49 49 48
39 45 46 32 21 7 20 20 22 24 21 28 33 34 29 38 38 35 32 29 30 29 30 31 33 36 36 38 38 41 42 42 43 44 44 44 44 43 40 40 39 40 41 40
36 42 45 38 22 2 19 24 17 19 19 16 29 25 26 33 36 35 35 33 33 32 32 33 36 37 36 35 39 42 43 43 44 44 43 42 42 41 40 39 38 39 40 41
34 38 41 37 21 11 14 20 18 14 14 17 23 24 25 20 20 27 32 34 36 35 33 28 30 36 39 41 43 44 46 47 45 43 42 41 40 41 41 42 42 41 41 41
32 36 36 33 21 15 13 19 25 24 17 20 20 23 29 27 23 24 26 31 34 39 39 33 32 33 34 36 37 40 42 46 45 40 38 40 42 42 42 42 42 42 43 42
30 34 35 33 23 17 18 16 23 18 20 18 20 21 22 25 26 29 27 29 30 32 31 31 33 34 33 34 35 37 37 36 40 41 40 37 37 39 40 38 38 41 43 42
27 31 34 34 28 19 18 14 12 21 18 19 20 18 13 14 21 25 30 31 32 27 27 31 31 32 33 35 34 32 31 35 37 36 35 32 33 33 33 36 38 40 41 43
25 27 30 33 30 27 17 14 18 18 21 28 27 24 21 18 18 18 24 27 31 34 35 36 35 33 33 33 33 34 33 32 31 30 30 30 31 32 33 34 35 36 37 38
23 27 31 34 34 30 25 23 18 21 24 27 29 30 29 26 22 21 20 24 25 29 31 30 30 31 31 31 31 32 32 32 30 29 30 29 29 31 32 33 33 34 34 33
21 25 29 31 34 35 34 31 29 23 22 26 27 32 32 33 30 26 21 19 23 24 27 29 29 28 27 28 27 28 29 30 30 30 30 30 30 31 32 32 32 33 34 34
21 24 28 30 33 35 38 35 34 30 25 21 26 27 30 29 27 25 27 25 23 23 23 25 28 31 29 28 28 27 27 29 30 30 29 29 30 30 31 32 33 33 32 32
Wind_Direction
209 215 208 228 227 245 252 205 194 193 173 202 213 212 210 213 219 228 230 229 228 232 234 237 231 234 239 235 233 228 230 212 211 218 216 218 206 216 215 231 248 262 262 268
189 221 231 238 250 254 259 237 253 269 177 195 207 205 209 210 212 221 226 228 228 233 234 235 236 239 240 253 245 244 242 232 220 224 223 229 230 253 238 234 239 247 250 257
248 244 241 238 248 251 254 253 241 241 204 214 197 208 206 210 215 219 224 230 227 228 230 231 233 239 241 250 251 251 244 245 247 245 246 239 233 252 240 233 239 244 249 260
252 259 247 244 249 253 253 251 244 248 200 214 221 209 220 216 216 219 220 227 230 232 232 233 231 234 238 242 247 250 252 253 254 256 261 253 254 243 251 246 241 251 253 256
233 241 244 233 237 253 264 257 247 248 250 251 232 234 213 205 215 221 219 224 230 233 235 238 241 240 240 243 245 248 247 246 249 252 252 256 260 259 262 254 252 257 264 267
239 236 239 245 251 248 252 256 257 245 241 247 245 242 229 222 232 222 210 222 226 233 236 238 241 242 244 245 246 246 245 244 244 246 249 252 257 254 255 261 259 262 267 269
290 266 254 250 255 253 248 250 250 248 239 241 239 245 237 244 233 248 223 227 224 224 229 229 234 244 247 244 241 243 245 250 249 248 249 251 252 251 253 255 257 259 261 261
318 286 267 256 248 249 249 244 244 244 246 247 242 241 247 246 241 241 247 239 230 224 231 235 241 247 247 238 236 243 251 250 248 251 252 252 251 252 253 256 258 259 260 262
336 315 283 262 248 241 242 236 235 239 242 245 245 242 243 243 243 242 243 239 231 237 237 237 241 243 247 240 245 252 254 253 252 251 253 254 256 256 257 258 257 259 260 260
345 338 311 267 252 240 237 234 234 232 231 237 242 243 245 237 235 230 231 231 212 215 224 228 235 237 242 239 246 250 252 251 254 255 255 254 256 258 259 259 260 258 259 259
358 346 327 290 251 235 237 234 234 235 237 236 231 237 231 230 221 226 229 236 226 220 219 224 225 226 229 233 238 240 242 245 248 249 250 252 252 255 258 261 262 262 262 263
1 354 337 300 255 230 227 229 237 239 240 238 241 234 244 237 239 232 230 232 238 236 238 239 240 239 239 237 237 240 245 249 252 250 250 253 257 258 259 261 263 264 265 264
8 2 342 318 271 224 220 216 223 233 238 239 240 233 235 237 237 241 235 235 232 235 238 243 242 242 242 244 248 248 250 251 252 251 253 255 256 258 259 261 262 263 264 265
14 8 351 332 253 230 219 221 215 230 230 226 220 226 236 234 240 237 222 224 228 232 232 232 234 235 237 238 240 244 246 248 250 252 255 255 255 257 259 262 264 266 267 268
14 16 6 348 275 206 213 226 226 233 225 234 218 228 227 239 238 235 231 227 223 226 230 232 231 232 237 238 240 243 245 246 248 251 252 255 256 257 259 260 263 264 266 265
11 17 19 7 352 233 223 217 225 243 232 244 228 230 231 231 238 232 234 231 229 229 230 232 231 233 235 235 235 240 243 245 247 249 251 253 255 258 260 261 262 262 263 265
11 14 18 17 2 262 216 223 236 244 225 232 228 243 232 231 232 232 230 232 236 230 231 234 235 234 236 238 240 242 243 246 250 252 252 254 257 258 260 259 257 256 256 255
10 13 16 19 12 320 223 235 257 258 258 232 236 242 240 245 231 231 235 232 226 228 231 232 238 242 243 245 247 247 246 248 250 252 254 253 254 256 257 257 257 258 259 259
9 13 18 16 12 328 240 234 249 271 260 251 244 244 247 259 225 232 236 235 231 230 235 240 240 243 248 250 250 249 250 251 252 253 254 254 254 256 257 259 261 263 264 266
9 13 18 21 5 351 292 257 250 259 271 264 261 255 252 249 251 239 239 240 239 239 244 245 244 242 241 247 250 254 257 256 258 259 254 254 254 256 257 259 260 261 264 269
7 11 16 18 15 355 324 286 247 260 260 262 260 262 257 256 249 241 241 240 239 229 229 236 243 244 245 245 244 247 249 249 251 257 260 257 256 255 257 260 261 263 266 269
4 7 12 12 11 360 353 333 284 251 259 261 256 248 259 252 247 243 241 241 244 247 244 246 249 248 248 250 250 250 252 250 250 254 254 256 257 257 257 258 261 262 262 264
4 5 9 11 10 5 343 312 295 280 266 257 257 264 255 243 240 245 245 242 245 251 253 253 257 258 256 254 256 253 253 257 258 255 254 255 254 253 253 255 257 258 260 263
358 3 6 8 11 4 350 336 309 291 282 267 257 256 251 250 248 246 252 252 252 253 249 252 255 257 260 258 256 256 259 261 260 256 254 253 255 257 257 257 257 261 263 265
354 355 360 5 11 11 5 351 335 320 295 276 265 254 249 246 250 252 256 268 264 264 260 255 255 259 263 261 260 257 256 256 255 254 254 254 255 256 258 260 260 264 266 266
349 351 354 0 5 10 14 11 1 343 328 298 265 249 237 240 244 254 255 264 270 264 270 269 265 258 261 257 256 256 257 257 256 255 255 255 255 256 258 259 261 263 266 268